Location: Unspecified
(44.4377°N, 88.0525°W)
Time: 12:52:20
(UTC-05:00)

Cosmos 1674 - Visible Passes

Search period start: 19 September 2014 00:00
Search period end: 29 September 2014 00:00
Orbit: 514 x 542 km, 82.5° (Epoch: 18 September)

Date Brightness Start Highest point End Pass type
(mag) Time Alt. Az. Time Alt. Az. Time Alt. Az.
19 Sep 4.6 20:49:20 10° NNE 20:51:02 20° NE 20:51:02 20° NE visible
19 Sep 5.8 22:25:27 10° NW 22:26:19 14° NW 22:26:19 14° NW visible
20 Sep 4.4 20:38:22 10° NNE 20:40:16 20° NE 20:40:16 20° NE visible
20 Sep 5.6 22:14:20 10° NW 22:15:33 17° NW 22:15:33 17° NW visible
21 Sep 4.4 20:27:24 10° NNE 20:29:30 21° NE 20:29:30 21° NE visible
21 Sep 5.4 22:03:12 10° NNW 22:04:48 19° NW 22:04:48 19° NW visible
22 Sep 4.3 20:16:26 10° NNE 20:18:46 20° NE 20:18:46 20° NE visible
22 Sep 5.1 21:52:04 10° NNW 21:54:04 23° NW 21:54:04 23° NW visible
23 Sep 4.3 20:05:28 10° NNE 20:08:04 20° ENE 20:08:04 20° ENE visible
23 Sep 4.8 21:40:56 10° NNW 21:43:21 27° WNW 21:43:21 27° WNW visible
24 Sep 4.3 19:54:30 10° NNE 19:57:20 19° ENE 19:57:24 19° ENE visible
24 Sep 4.5 21:29:49 10° NNW 21:32:41 31° WNW 21:32:41 31° WNW visible
25 Sep 4.3 19:43:33 10° NNE 19:46:13 17° ENE 19:46:46 17° E visible
25 Sep 4.2 21:18:41 10° NNW 21:22:04 37° W 21:22:04 37° W visible
26 Sep 4.4 19:32:36 10° NNE 19:35:06 16° ENE 19:36:11 15° E visible
26 Sep 3.9 21:07:32 10° NNW 21:11:16 41° W 21:11:29 40° WSW visible
27 Sep 4.5 19:21:40 10° NNE 19:23:58 15° ENE 19:25:41 12° E visible
27 Sep 3.8 20:56:24 10° NNW 21:00:12 44° W 21:00:59 39° SW visible
28 Sep 4.6 19:10:45 10° NE 19:12:49 14° ENE 19:14:54 10° E visible
28 Sep 3.6 20:45:16 10° NNW 20:49:06 49° W 20:50:34 32° SSW visible
